| time (UTC) | temp F | wind direction | speed MPH | gust MPH | rain 1hr in | rain 24hr in | rain mn in | humidity % | barometer mb |
| 20260904161744 | 90 | 159 | 1.0 | 2.0 | 0.00 | 0.00 | 0.00 | 64 | 1016.5 |
| 20260904161244 | 90 | 194 | 1.0 | 2.0 | 0.00 | 0.00 | 0.00 | 66 | 1016.3 |
| 20260904160740 | 89 | 183 | 3.0 | 3.0 | 0.00 | 0.00 | 0.00 | 66 | 1016.4 |
| 20260904160236 | 89 | 198 | 1.0 | 1.0 | 0.00 | 0.00 | 0.00 | 65 | 1016.5 |
| 20260904155735 | 89 | 178 | 5.0 | 6.0 | 0.00 | 0.00 | 0.00 | 67 | 1016.2 |
| 20260904155234 | 88 | 201 | 4.0 | 6.0 | 0.00 | 0.00 | 0.00 | 67 | 1016.5 |
| 20260904154733 | 88 | 184 | 1.0 | 2.0 | 0.00 | 0.00 | 0.00 | 69 | 1016.4 |
| 20260904154228 | 88 | 164 | 4.0 | 6.0 | 0.00 | 0.00 | 0.00 | 69 | 1016.3 |
| 20260904153724 | 88 | 191 | 4.0 | 7.0 | 0.00 | 0.00 | 0.00 | 70 | 1016.3 |
| 20260904153219 | 87 | 200 | 3.0 | 5.0 | 0.00 | 0.00 | 0.00 | 71 | 1016.3 |
| 20260904152715 | 87 | 157 | 6.0 | 8.0 | 0.00 | 0.00 | 0.00 | 71 | 1016.2 |
| 20260904152210 | 87 | 196 | 3.0 | 5.0 | 0.00 | 0.00 | 0.00 | 73 | 1016.0 |
| 20260904151705 | 87 | 193 | 3.0 | 5.0 | 0.00 | 0.00 | 0.00 | 74 | 1016.3 |
| 20260904151204 | 85 | 146 | 2.0 | 2.0 | 0.00 | 0.00 | 0.00 | 76 | 1016.1 |
| 20260904150700 | 86 | 173 | 6.0 | 7.0 | 0.00 | 0.00 | 0.00 | 76 | 1016.1 |
| 20260904150155 | 86 | 196 | 1.0 | 1.0 | 0.00 | 0.00 | 0.00 | 77 | 1016.0 |
| 20260904145653 | 85 | 166 | 2.0 | 3.0 | 0.00 | 0.00 | 0.00 | 79 | 1015.9 |
| 20260904145148 | 85 | 200 | 2.0 | 3.0 | 0.00 | 0.00 | 0.00 | 80 | 1016.1 |
| 20260904144644 | 83 | 197 | 3.0 | 3.0 | 0.00 | 0.00 | 0.00 | 83 | 1016.1 |
| 20260904144140 | 83 | 187 | 5.0 | 9.0 | 0.00 | 0.00 | 0.00 | 83 | 1016.2 |
| 20260904143636 | 83 | 150 | 2.0 | 2.0 | 0.00 | 0.00 | 0.00 | 84 | 1016.3 |
| 20260904143132 | 83 | 206 | 4.0 | 5.0 | 0.00 | 0.00 | 0.00 | 84 | 1016.2 |
| 20260904142628 | 82 | 162 | 1.0 | 2.0 | 0.00 | 0.00 | 0.00 | 85 | 1016.3 |
| 20260904142124 | 82 | 194 | 4.0 | 6.0 | 0.00 | 0.00 | 0.00 | 86 | 1016.3 |
| 20260904141618 | 82 | 169 | 1.0 | 2.0 | 0.00 | 0.00 | 0.00 | 88 | 1016.3 |
| 20260904141114 | 81 | 191 | 3.0 | 3.0 | 0.00 | 0.00 | 0.00 | 88 | 1016.1 |
| 20260904140610 | 81 | 157 | 5.0 | 8.0 | 0.00 | 0.00 | 0.00 | 88 | 1016.3 |
| 20260904140103 | 81 | 180 | 4.0 | 7.0 | 0.00 | 0.00 | 0.00 | 88 | 1016.3 |
| 20260904135603 | 81 | 202 | 2.0 | 2.0 | 0.00 | 0.00 | 0.00 | 89 | 1016.3 |
| 20260904135059 | 81 | 204 | 3.0 | 3.0 | 0.00 | 0.00 | 0.00 | 90 | 1016.2 |
| 20260904134555 | 80 | 192 | 1.0 | 2.0 | 0.00 | 0.00 | 0.00 | 91 | 1016.2 |
| 20260904134048 | 79 | 172 | 3.0 | 5.0 | 0.00 | 0.00 | 0.00 | 92 | 1016.0 |
| 20260904133543 | 79 | 161 | 2.0 | 3.0 | 0.00 | 0.00 | 0.00 | 93 | 1016.0 |
| 20260904133040 | 79 | 182 | 1.0 | 1.0 | 0.00 | 0.00 | 0.00 | 94 | 1015.9 |
| 20260904132539 | 78 | 176 | 0.0 | 1.0 | 0.00 | 0.00 | 0.00 | 94 | 1015.9 |
| 20260904132039 | 78 | 202 | 3.0 | 3.0 | 0.00 | 0.00 | 0.00 | 94 | 1015.9 |
| 20260904131539 | 78 | 195 | 1.0 | 2.0 | 0.00 | 0.00 | 0.00 | 95 | 1015.8 |
| 20260904131035 | 78 | 193 | 1.0 | 2.0 | 0.00 | 0.00 | 0.00 | 95 | 1015.9 |
| 20260904130534 | 78 | 170 | 1.0 | 3.0 | 0.00 | 0.00 | 0.00 | 95 | 1015.8 |
| 20260904130029 | 77 | 75 | 2.0 | 2.0 | 0.00 | 0.00 | 0.00 | 95 | 1015.6 |
| 20260904125526 | 77 | 188 | 1.0 | 1.0 | 0.00 | 0.00 | 0.00 | 95 | 1015.6 |
| 20260904125020 | 77 | 206 | 2.0 | 3.0 | 0.00 | 0.00 | 0.00 | 96 | 1015.6 |
| 20260904124516 | 77 | 206 | 0.0 | 1.0 | 0.00 | 0.00 | 0.00 | 96 | 1015.5 |
| 20260904124012 | 77 | 204 | 1.0 | 1.0 | 0.00 | 0.00 | 0.00 | 96 | 1015.5 |
| 20260904123511 | 77 | 188 | 2.0 | 2.0 | 0.00 | 0.00 | 0.00 | 96 | 1015.5 |
| 20260904123007 | 77 | 138 | 1.0 | 2.0 | 0.00 | 0.00 | 0.00 | 96 | 1015.4 |
| 20260904122501 | 77 | 192 | 1.0 | 2.0 | 0.00 | 0.00 | 0.00 | 96 | 1015.7 |
| 20260904121955 | 77 | 189 | 2.0 | 2.0 | 0.00 | 0.00 | 0.00 | 96 | 1015.6 |
| 20260904121452 | 76 | 213 | 3.0 | 3.0 | 0.00 | 0.00 | 0.00 | 95 | 1015.6 |
| 20260904120948 | 76 | 195 | 1.0 | 1.0 | 0.00 | 0.00 | 0.00 | 95 | 1015.5 |
| 20260904120443 | 76 | 170 | 1.0 | 1.0 | 0.00 | 0.00 | 0.00 | 95 | 1015.1 |
| 20260904115938 | 76 | 144 | 1.0 | 1.0 | 0.00 | 0.00 | 0.00 | 95 | 1015.3 |
| 20260904115434 | 76 | 189 | 2.0 | 2.0 | 0.00 | 0.00 | 0.00 | 95 | 1015.4 |
| 20260904114933 | 76 | 157 | 2.0 | 3.0 | 0.00 | 0.00 | 0.00 | 95 | 1015.2 |
| 20260904114428 | 76 | 186 | 1.0 | 1.0 | 0.00 | 0.00 | 0.00 | 94 | 1015.1 |
| 20260904113924 | 76 | 200 | 1.0 | 2.0 | 0.00 | 0.00 | 0.00 | 94 | 1015.3 |
| 20260904113423 | 76 | 194 | 1.0 | 1.0 | 0.00 | 0.00 | 0.00 | 94 | 1015.2 |
| 20260904112922 | 76 | 194 | 0.0 | 1.0 | 0.00 | 0.00 | 0.00 | 94 | 1015.5 |
| 20260904112418 | 76 | 208 | 1.0 | 1.0 | 0.00 | 0.00 | 0.00 | 94 | 1015.2 |
| 20260904111913 | 76 | 206 | 1.0 | 2.0 | 0.00 | 0.00 | 0.00 | 94 | 1014.9 |
| 20260904111409 | 76 | 201 | 2.0 | 2.0 | 0.00 | 0.00 | 0.00 | 93 | 1015.0 |
| 20260904110905 | 76 | 212 | 2.0 | 3.0 | 0.00 | 0.00 | 0.00 | 93 | 1015.0 |
| 20260904110403 | 76 | 208 | 1.0 | 2.0 | 0.00 | 0.00 | 0.00 | 93 | 1015.0 |
| 20260904105858 | 76 | 210 | 1.0 | 2.0 | 0.00 | 0.00 | 0.00 | 93 | 1015.1 |
| 20260904105353 | 76 | 206 | 1.0 | 1.0 | 0.00 | 0.00 | 0.00 | 92 | 1015.1 |
| 20260904104848 | 76 | 174 | 1.0 | 1.0 | 0.00 | 0.00 | 0.00 | 92 | 1014.9 |
| 20260904104344 | 76 | 148 | 2.0 | 2.0 | 0.00 | 0.00 | 0.00 | 91 | 1014.9 |
| 20260904103841 | 76 | 182 | 3.0 | 3.0 | 0.00 | 0.00 | 0.00 | 91 | 1015.0 |
| 20260904103341 | 76 | 173 | 1.0 | 1.0 | 0.00 | 0.00 | 0.00 | 91 | 1015.0 |
| 20260904102837 | 76 | 181 | 0.0 | 1.0 | 0.00 | 0.00 | 0.00 | 90 | 1014.9 |
| 20260904102332 | 77 | 142 | 1.0 | 1.0 | 0.00 | 0.00 | 0.00 | 90 | 1014.9 |
| 20260904101828 | 77 | 185 | 0.0 | 0.0 | 0.00 | 0.00 | 0.00 | 90 | 1014.8 |
| 20260904101324 | 77 | 177 | 0.0 | 1.0 | 0.00 | 0.00 | 0.00 | 89 | 1014.8 |
| 20260904100819 | 77 | 162 | 2.0 | 2.0 | 0.00 | 0.00 | 0.00 | 89 | 1015.0 |
| 20260904100315 | 77 | 201 | 1.0 | 1.0 | 0.00 | 0.00 | 0.00 | 89 | 1014.9 |
| 20260904095816 | 77 | 156 | 1.0 | 1.0 | 0.00 | 0.00 | 0.00 | 89 | 1014.6 |
| 20260904095310 | 77 | 171 | 1.0 | 2.0 | 0.00 | 0.00 | 0.00 | 89 | 1014.8 |
| 20260904094806 | 77 | 160 | 1.0 | 1.0 | 0.00 | 0.00 | 0.00 | 89 | 1014.7 |
| 20260904094301 | 77 | 164 | 1.0 | 2.0 | 0.00 | 0.00 | 0.00 | 89 | 1014.7 |
| 20260904093757 | 77 | 184 | 0.0 | 0.0 | 0.00 | 0.00 | 0.00 | 89 | 1014.7 |
| 20260904093257 | 77 | 198 | 0.0 | 0.0 | 0.00 | 0.00 | 0.00 | 88 | 1014.8 |
| 20260904092752 | 77 | 193 | 0.0 | 0.0 | 0.00 | 0.00 | 0.00 | 88 | 1014.6 |
| 20260904092249 | 77 | 199 | 0.0 | 0.0 | 0.00 | 0.00 | 0.00 | 88 | 1014.7 |
| 20260904091744 | 77 | 201 | 0.0 | 0.0 | 0.00 | 0.00 | 0.00 | 87 | 1014.6 |
| 20260904091239 | 77 | 200 | 0.0 | 0.0 | 0.00 | 0.00 | 0.00 | 87 | 1014.8 |
| 20260904090735 | 77 | 181 | 1.0 | 1.0 | 0.00 | 0.00 | 0.00 | 87 | 1014.8 |
| 20260904090231 | 77 | 194 | 0.0 | 0.0 | 0.00 | 0.00 | 0.00 | 87 | 1014.6 |
| 20260904085730 | 77 | 198 | 0.0 | 1.0 | 0.00 | 0.00 | 0.00 | 87 | 1014.7 |
| 20260904085225 | 77 | 200 | 0.0 | 0.0 | 0.00 | 0.00 | 0.00 | 87 | 1014.8 |
| 20260904084720 | 77 | 183 | 0.0 | 0.0 | 0.00 | 0.00 | 0.00 | 87 | 1014.7 |
| 20260904084216 | 77 | 191 | 1.0 | 1.0 | 0.00 | 0.00 | 0.00 | 86 | 1014.5 |
| 20260904083713 | 77 | 178 | 3.0 | 3.0 | 0.00 | 0.00 | 0.00 | 86 | 1014.8 |
| 20260904083209 | 77 | 205 | 0.0 | 0.0 | 0.00 | 0.00 | 0.00 | 86 | 1014.6 |
| 20260904082709 | 78 | 211 | 1.0 | 1.0 | 0.00 | 0.00 | 0.00 | 86 | 1014.6 |
| 20260904082204 | 78 | 160 | 1.0 | 2.0 | 0.00 | 0.00 | 0.00 | 86 | 1014.6 |
| 20260904081659 | 78 | 160 | 1.0 | 2.0 | 0.00 | 0.00 | 0.00 | 85 | 1014.6 |
| 20260904081154 | 78 | 178 | 1.0 | 1.0 | 0.00 | 0.00 | 0.00 | 85 | 1014.6 |
| 20260904080650 | 78 | 221 | 0.0 | 1.0 | 0.00 | 0.00 | 0.00 | 85 | 1014.4 |
| 20260904080146 | 78 | 180 | 1.0 | 1.0 | 0.00 | 0.00 | 0.00 | 85 | 1014.6 |
| 20260904075643 | 78 | 192 | 3.0 | 5.0 | 0.00 | 0.00 | 0.00 | 84 | 1014.6 |
| 20260904075137 | 78 | 169 | 2.0 | 2.0 | 0.00 | 0.00 | 0.00 | 84 | 1014.6 |
| 20260904074636 | 78 | 194 | 0.0 | 1.0 | 0.00 | 0.00 | 0.00 | 84 | 1014.5 |
| 20260904074131 | 79 | 199 | 0.0 | 0.0 | 0.00 | 0.00 | 0.00 | 84 | 1014.5 |
| 20260904073626 | 79 | 190 | 1.0 | 2.0 | 0.00 | 0.00 | 0.00 | 84 | 1014.5 |
| 20260904073122 | 79 | 194 | 0.0 | 0.0 | 0.00 | 0.00 | 0.00 | 83 | 1014.5 |
| 20260904072618 | 79 | 201 | 0.0 | 1.0 | 0.00 | 0.00 | 0.00 | 83 | 1014.7 |
| 20260904072112 | 79 | 168 | 1.0 | 1.0 | 0.00 | 0.00 | 0.00 | 82 | 1014.6 |
| 20260904071603 | 79 | 200 | 0.0 | 1.0 | 0.00 | 0.00 | 0.00 | 82 | 1014.6 |
| 20260904071057 | 79 | 166 | 2.0 | 3.0 | 0.00 | 0.00 | 0.00 | 82 | 1014.6 |
| 20260904070556 | 79 | 156 | 3.0 | 5.0 | 0.00 | 0.00 | 0.00 | 82 | 1014.6 |
| 20260904070052 | 79 | 187 | 2.0 | 2.0 | 0.00 | 0.00 | 0.00 | 81 | 1014.7 |
| 20260904065546 | 79 | 190 | 2.0 | 3.0 | 0.00 | 0.00 | 0.00 | 81 | 1014.9 |
| 20260904065042 | 79 | 180 | 2.0 | 3.0 | 0.00 | 0.00 | 0.00 | 81 | 1015.0 |
| 20260904064538 | 80 | 195 | 0.0 | 0.0 | 0.00 | 0.00 | 0.00 | 81 | 1014.9 |
| 20260904064032 | 80 | 196 | 2.0 | 2.0 | 0.00 | 0.00 | 0.00 | 80 | 1015.0 |
| 20260904063530 | 80 | 192 | 0.0 | 0.0 | 0.00 | 0.00 | 0.00 | 80 | 1014.9 |
| 20260904063029 | 80 | 197 | 2.0 | 2.0 | 0.00 | 0.00 | 0.00 | 80 | 1014.6 |
| 20260904062526 | 80 | 186 | 0.0 | 1.0 | 0.00 | 0.00 | 0.00 | 80 | 1014.8 |
| 20260904062021 | 80 | 175 | 3.0 | 3.0 | 0.00 | 0.00 | 0.00 | 80 | 1014.7 |
| 20260904061517 | 80 | 192 | 2.0 | 2.0 | 0.00 | 0.00 | 0.00 | 80 | 1014.8 |
| 20260904061013 | 80 | 196 | 3.0 | 3.0 | 0.00 | 0.00 | 0.00 | 79 | 1014.7 |
| 20260904060509 | 80 | 194 | 3.0 | 5.0 | 0.00 | 0.00 | 0.00 | 79 | 1014.8 |
| 20260904060005 | 80 | 207 | 2.0 | 3.0 | 0.00 | 0.00 | 0.00 | 79 | 1014.7 |
| 20260904055500 | 80 | 190 | 2.0 | 3.0 | 0.00 | 0.00 | 0.00 | 79 | 1014.7 |
| 20260904054955 | 80 | 172 | 3.0 | 3.0 | 0.00 | 0.00 | 0.00 | 79 | 1014.7 |
| 20260904054451 | 80 | 204 | 4.0 | 5.0 | 0.00 | 0.00 | 0.00 | 78 | 1014.6 |
| 20260904053947 | 80 | 183 | 1.0 | 1.0 | 0.00 | 0.00 | 0.00 | 78 | 1014.6 |
| 20260904053446 | 80 | 198 | 1.0 | 1.0 | 0.00 | 0.00 | 0.00 | 77 | 1014.8 |
| 20260904052942 | 80 | 192 | 0.0 | 0.0 | 0.00 | 0.00 | 0.00 | 76 | 1014.6 |
| 20260904052438 | 80 | 173 | 1.0 | 2.0 | 0.00 | 0.00 | 0.00 | 76 | 1014.9 |
| 20260904051933 | 80 | 168 | 1.0 | 1.0 | 0.00 | 0.00 | 0.00 | 76 | 1014.6 |
| 20260904051430 | 80 | 197 | 1.0 | 2.0 | 0.00 | 0.00 | 0.00 | 76 | 1014.4 |
| 20260904050929 | 80 | 218 | 3.0 | 5.0 | 0.00 | 0.00 | 0.00 | 75 | 1014.7 |
| 20260904050426 | 80 | 180 | 1.0 | 2.0 | 0.00 | 0.00 | 0.00 | 75 | 1014.6 |
| 20260904045926 | 80 | 181 | 1.0 | 1.0 | 0.00 | 0.00 | 0.00 | 75 | 1014.7 |
| 20260904045421 | 80 | 205 | 0.0 | 0.0 | 0.00 | 0.00 | 0.00 | 75 | 1014.6 |
| 20260904044921 | 80 | 138 | 2.0 | 2.0 | 0.00 | 0.00 | 0.00 | 75 | 1014.7 |
| 20260904044417 | 81 | 197 | 4.0 | 6.0 | 0.00 | 0.00 | 0.00 | 75 | 1014.7 |
| 20260904043913 | 81 | 184 | 3.0 | 3.0 | 0.00 | 0.00 | 0.00 | 76 | 1014.8 |
| 20260904043410 | 81 | 198 | 2.0 | 3.0 | 0.00 | 0.00 | 0.00 | 75 | 1014.6 |
| 20260904042904 | 81 | 182 | 1.0 | 1.0 | 0.00 | 0.00 | 0.00 | 74 | 1014.6 |
| 20260904042401 | 81 | 217 | 1.0 | 3.0 | 0.00 | 0.00 | 0.00 | 74 | 1014.9 |
| 20260904041855 | 81 | 184 | 1.0 | 1.0 | 0.00 | 0.00 | 0.00 | 74 | 1014.6 |
| 20260904041352 | 81 | 185 | 2.0 | 3.0 | 0.00 | 0.00 | 0.00 | 73 | 1014.8 |
| 20260904040848 | 81 | 212 | 3.0 | 6.0 | 0.00 | 0.00 | 0.00 | 73 | 1014.8 |
| 20260904040342 | 81 | 188 | 2.0 | 2.0 | 0.00 | 0.00 | 0.00 | 73 | 1014.9 |
| 20260904035839 | 81 | 178 | 2.0 | 2.0 | 0.00 | 0.00 | 0.00 | 72 | 1014.9 |
| 20260904035335 | 82 | 181 | 2.0 | 3.0 | 0.00 | 0.00 | 0.00 | 72 | 1014.8 |
| 20260904034833 | 82 | 183 | 3.0 | 5.0 | 0.00 | 0.00 | 0.00 | 71 | 1014.7 |
| 20260904034329 | 82 | 188 | 2.0 | 2.0 | 0.00 | 0.00 | 0.00 | 71 | 1014.7 |
| 20260904033825 | 82 | 181 | 4.0 | 5.0 | 0.00 | 0.00 | 0.00 | 71 | 1014.8 |
| 20260904033321 | 82 | 177 | 0.0 | 1.0 | 0.00 | 0.00 | 0.00 | 71 | 1014.7 |
| 20260904032817 | 82 | 189 | 3.0 | 3.0 | 0.00 | 0.00 | 0.00 | 71 | 1014.8 |
| 20260904032316 | 82 | 192 | 1.0 | 2.0 | 0.00 | 0.00 | 0.00 | 71 | 1015.2 |
| 20260904031811 | 82 | 198 | 5.0 | 9.0 | 0.00 | 0.00 | 0.00 | 71 | 1014.8 |
| 20260904031306 | 82 | 185 | 1.0 | 2.0 | 0.00 | 0.00 | 0.00 | 71 | 1014.6 |
| 20260904030802 | 82 | 182 | 2.0 | 3.0 | 0.00 | 0.00 | 0.00 | 71 | 1014.6 |
| 20260904030257 | 82 | 157 | 5.0 | 8.0 | 0.00 | 0.00 | 0.00 | 71 | 1014.8 |
| 20260904025754 | 82 | 166 | 1.0 | 2.0 | 0.00 | 0.00 | 0.00 | 71 | 1014.6 |
| 20260904025249 | 83 | 155 | 1.0 | 2.0 | 0.00 | 0.00 | 0.00 | 71 | 1014.7 |
| 20260904024744 | 83 | 195 | 2.0 | 2.0 | 0.00 | 0.00 | 0.00 | 71 | 1014.5 |
| 20260904024239 | 83 | 170 | 3.0 | 6.0 | 0.00 | 0.00 | 0.00 | 71 | 1014.6 |
| 20260904023735 | 83 | 222 | 2.0 | 3.0 | 0.00 | 0.00 | 0.00 | 72 | 1014.1 |
| 20260904023231 | 83 | 201 | 5.0 | 7.0 | 0.00 | 0.00 | 0.00 | 72 | 1014.1 |
| 20260904022730 | 83 | 152 | 2.0 | 2.0 | 0.00 | 0.00 | 0.00 | 74 | 1014.1 |
| 20260904022228 | 83 | 169 | 4.0 | 6.0 | 0.00 | 0.00 | 0.00 | 74 | 1013.9 |
| 20260904021723 | 83 | 213 | 5.0 | 7.0 | 0.00 | 0.00 | 0.00 | 74 | 1013.9 |
| 20260904021218 | 83 | 201 | 2.0 | 2.0 | 0.00 | 0.00 | 0.00 | 74 | 1013.6 |
| 20260904020714 | 83 | 188 | 1.0 | 1.0 | 0.00 | 0.00 | 0.00 | 74 | 1013.8 |
| 20260904020213 | 84 | 203 | 3.0 | 7.0 | 0.00 | 0.00 | 0.00 | 73 | 1013.8 |
| 20260904015712 | 84 | 160 | 3.0 | 5.0 | 0.00 | 0.00 | 0.00 | 73 | 1013.6 |
| 20260904015207 | 84 | 183 | 3.0 | 3.0 | 0.00 | 0.00 | 0.00 | 73 | 1013.4 |
| 20260904014705 | 84 | 166 | 2.0 | 3.0 | 0.00 | 0.00 | 0.00 | 73 | 1013.4 |
| 20260904014200 | 84 | 172 | 2.0 | 3.0 | 0.00 | 0.00 | 0.00 | 74 | 1013.4 |
| 20260904013658 | 84 | 19 | 1.0 | 2.0 | 0.00 | 0.00 | 0.00 | 73 | 1013.4 |
| 20260904013153 | 85 | 209 | 2.0 | 3.0 | 0.00 | 0.00 | 0.00 | 73 | 1013.2 |
| 20260904012649 | 85 | 167 | 2.0 | 2.0 | 0.00 | 0.00 | 0.00 | 72 | 1013.4 |
| 20260904012147 | 85 | 189 | 2.0 | 5.0 | 0.00 | 0.00 | 0.00 | 72 | 1013.2 |
| 20260904011647 | 85 | 192 | 1.0 | 1.0 | 0.00 | 0.00 | 0.00 | 72 | 1013.1 |
| 20260904011143 | 85 | 192 | 0.0 | 1.0 | 0.00 | 0.00 | 0.00 | 71 | 1013.0 |
| 20260904010638 | 85 | 202 | 1.0 | 1.0 | 0.00 | 0.00 | 0.00 | 70 | 1013.2 |
| 20260904010134 | 86 | 193 | 1.0 | 1.0 | 0.00 | 0.00 | 0.00 | 70 | 1012.7 |
| 20260904005629 | 86 | 156 | 2.0 | 3.0 | 0.00 | 0.00 | 0.00 | 69 | 1013.1 |
| 20260904005125 | 86 | 116 | 0.0 | 2.0 | 0.00 | 0.00 | 0.00 | 69 | 1013.1 |
| 20260904004620 | 86 | 140 | 2.0 | 2.0 | 0.00 | 0.00 | 0.00 | 68 | 1013.1 |
| 20260904004120 | 86 | 199 | 2.0 | 2.0 | 0.00 | 0.00 | 0.00 | 68 | 1013.2 |
| 20260904003616 | 86 | 157 | 3.0 | 5.0 | 0.00 | 0.00 | 0.00 | 68 | 1013.0 |
| 20260904003112 | 87 | 121 | 2.0 | 3.0 | 0.00 | 0.00 | 0.00 | 67 | 1012.9 |
| 20260904002608 | 87 | 130 | 1.0 | 2.0 | 0.00 | 0.00 | 0.00 | 66 | 1013.0 |
| 20260904002102 | 87 | 149 | 2.0 | 3.0 | 0.00 | 0.00 | 0.00 | 64 | 1012.9 |
| 20260904001557 | 87 | 177 | 2.0 | 2.0 | 0.00 | 0.00 | 0.00 | 64 | 1013.0 |
| 20260904001056 | 87 | 193 | 3.0 | 5.0 | 0.00 | 0.00 | 0.00 | 65 | 1012.8 |
| 20260904000550 | 87 | 187 | 1.0 | 2.0 | 0.00 | 0.00 | 0.00 | 66 | 1013.0 |
| 20260904000041 | 88 | 128 | 3.0 | 5.0 | 0.00 | 0.00 | 0.00 | 65 | 1012.6 |
| 20260903235536 | 88 | 185 | 3.0 | 3.0 | 0.00 | 0.00 | 0.00 | 64 | 1012.9 |
| 20260903235032 | 88 | 162 | 4.0 | 7.0 | 0.00 | 0.00 | 0.00 | 64 | 1012.9 |
| 20260903234527 | 88 | 234 | 2.0 | 3.0 | 0.00 | 0.00 | 0.00 | 65 | 1012.8 |
| 20260903234022 | 89 | 103 | 3.0 | 3.0 | 0.00 | 0.00 | 0.00 | 65 | 1012.6 |
| 20260903233518 | 89 | 179 | 3.0 | 5.0 | 0.00 | 0.00 | 0.00 | 66 | 1012.8 |
| 20260903233014 | 89 | 175 | 3.0 | 3.0 | 0.00 | 0.00 | 0.00 | 65 | 1012.5 |
| 20260903232509 | 89 | 111 | 3.0 | 3.0 | 0.00 | 0.00 | 0.00 | 65 | 1012.5 |
| 20260903232008 | 89 | 141 | 2.0 | 5.0 | 0.00 | 0.00 | 0.00 | 65 | 1012.4 |
| 20260903231502 | 89 | 130 | 2.0 | 5.0 | 0.00 | 0.00 | 0.00 | 65 | 1012.6 |
| 20260903230957 | 89 | 158 | 2.0 | 3.0 | 0.00 | 0.00 | 0.00 | 65 | 1012.5 |
| 20260903230454 | 90 | 150 | 4.0 | 6.0 | 0.00 | 0.00 | 0.00 | 64 | 1012.5 |
| 20260903225950 | 90 | 99 | 3.0 | 5.0 | 0.00 | 0.00 | 0.00 | 64 | 1012.6 |
| 20260903225444 | 90 | 187 | 1.0 | 1.0 | 0.00 | 0.00 | 0.00 | 64 | 1012.4 |
| 20260903224935 | 91 | 179 | 3.0 | 5.0 | 0.00 | 0.00 | 0.00 | 62 | 1012.5 |
| 20260903224431 | 91 | 150 | 3.0 | 3.0 | 0.00 | 0.00 | 0.00 | 62 | 1012.4 |
| 20260903223927 | 91 | 179 | 4.0 | 5.0 | 0.00 | 0.00 | 0.00 | 60 | 1012.5 |
| 20260903223426 | 92 | 133 | 3.0 | 3.0 | 0.00 | 0.00 | 0.00 | 60 | 1012.2 |
| 20260903222925 | 91 | 183 | 2.0 | 3.0 | 0.00 | 0.00 | 0.00 | 60 | 1012.5 |
| 20260903222421 | 92 | 161 | 4.0 | 5.0 | 0.00 | 0.00 | 0.00 | 60 | 1012.4 |
| 20260903221920 | 93 | 192 | 0.0 | 0.0 | 0.00 | 0.00 | 0.00 | 58 | 1012.2 |
| 20260903221420 | 92 | 163 | 1.0 | 1.0 | 0.00 | 0.00 | 0.00 | 58 | 1012.3 |
| 20260903220918 | 92 | 186 | 5.0 | 6.0 | 0.00 | 0.00 | 0.00 | 59 | 1012.4 |
| 20260903220412 | 92 | 103 | 2.0 | 3.0 | 0.00 | 0.00 | 0.00 | 58 | 1012.4 |
| 20260903215909 | 92 | 177 | 1.0 | 1.0 | 0.00 | 0.00 | 0.00 | 58 | 1012.6 |
| 20260903215407 | 93 | 175 | 4.0 | 7.0 | 0.00 | 0.00 | 0.00 | 58 | 1012.5 |
| 20260903214905 | 92 | 191 | 3.0 | 5.0 | 0.00 | 0.00 | 0.00 | 58 | 1012.5 |
| 20260903214401 | 92 | 164 | 3.0 | 3.0 | 0.00 | 0.00 | 0.00 | 59 | 1012.7 |
| 20260903213901 | 92 | 156 | 1.0 | 2.0 | 0.00 | 0.00 | 0.00 | 60 | 1012.8 |
| 20260903213356 | 91 | 214 | 1.0 | 1.0 | 0.00 | 0.00 | 0.00 | 60 | 1012.8 |
| 20260903212852 | 91 | 134 | 2.0 | 3.0 | 0.00 | 0.00 | 0.00 | 61 | 1012.9 |
| 20260903212347 | 91 | 132 | 3.0 | 5.0 | 0.00 | 0.00 | 0.00 | 60 | 1012.7 |
| 20260903211846 | 91 | 177 | 7.0 | 9.0 | 0.00 | 0.00 | 0.00 | 61 | 1013.0 |
| 20260903211343 | 92 | 209 | 7.0 | 9.0 | 0.00 | 0.00 | 0.00 | 61 | 1013.1 |
| 20260903210838 | 91 | 190 | 3.0 | 3.0 | 0.00 | 0.00 | 0.00 | 61 | 1013.1 |
| 20260903210333 | 91 | 171 | 4.0 | 6.0 | 0.00 | 0.00 | 0.00 | 62 | 1013.0 |
| 20260903205833 | 91 | 117 | 3.0 | 6.0 | 0.00 | 0.00 | 0.00 | 62 | 1013.0 |
| 20260903205333 | 91 | 206 | 10.0 | 13.0 | 0.00 | 0.00 | 0.00 | 61 | 1013.2 |
| 20260903204828 | 91 | 188 | 1.0 | 3.0 | 0.00 | 0.00 | 0.00 | 62 | 1013.1 |
| 20260903204324 | 91 | 109 | 4.0 | 6.0 | 0.00 | 0.00 | 0.00 | 61 | 1013.2 |
| 20260903203819 | 91 | 182 | 4.0 | 6.0 | 0.00 | 0.00 | 0.00 | 62 | 1013.3 |
| 20260903203315 | 91 | 206 | 3.0 | 3.0 | 0.00 | 0.00 | 0.00 | 63 | 1013.5 |
| 20260903202814 | 91 | 207 | 2.0 | 3.0 | 0.00 | 0.00 | 0.00 | 62 | 1013.6 |
| 20260903202311 | 90 | 182 | 2.0 | 2.0 | 0.00 | 0.00 | 0.00 | 64 | 1013.6 |
| 20260903201810 | 89 | 167 | 4.0 | 7.0 | 0.00 | 0.00 | 0.00 | 65 | 1013.7 |
| 20260903201305 | 89 | 202 | 1.0 | 1.0 | 0.00 | 0.00 | 0.00 | 65 | 1013.8 |
| 20260903200804 | 89 | 213 | 5.0 | 5.0 | 0.00 | 0.00 | 0.00 | 65 | 1013.7 |
| 20260903200259 | 90 | 65 | 3.0 | 5.0 | 0.00 | 0.00 | 0.00 | 65 | 1013.9 |
| 20260903195754 | 90 | 142 | 2.0 | 5.0 | 0.00 | 0.00 | 0.00 | 65 | 1013.7 |
| 20260903195250 | 88 | 184 | 3.0 | 5.0 | 0.00 | 0.00 | 0.00 | 67 | 1013.7 |
| 20260903194745 | 88 | 122 | 3.0 | 5.0 | 0.00 | 0.00 | 0.00 | 68 | 1013.8 |
| 20260903194241 | 89 | 184 | 5.0 | 8.0 | 0.00 | 0.00 | 0.00 | 67 | 1013.7 |
| 20260903193736 | 87 | 192 | 6.0 | 7.0 | 0.00 | 0.00 | 0.00 | 69 | 1013.9 |
| 20260903193232 | 87 | 78 | 5.0 | 7.0 | 0.00 | 0.00 | 0.00 | 70 | 1014.0 |
| 20260903192728 | 87 | 181 | 5.0 | 7.0 | 0.00 | 0.00 | 0.00 | 70 | 1014.0 |
| 20260903192223 | 87 | 188 | 3.0 | 3.0 | 0.00 | 0.00 | 0.00 | 70 | 1013.9 |
| 20260903191719 | 86 | 204 | 1.0 | 2.0 | 0.00 | 0.00 | 0.00 | 71 | 1014.1 |
| 20260903191214 | 87 | 196 | 3.0 | 5.0 | 0.00 | 0.00 | 0.00 | 70 | 1014.3 |
| 20260903190709 | 87 | 201 | 3.0 | 5.0 | 0.00 | 0.00 | 0.00 | 70 | 1014.4 |
| 20260903190209 | 88 | 141 | 4.0 | 6.0 | 0.00 | 0.00 | 0.00 | 69 | 1014.4 |
| 20260903185703 | 87 | 164 | 3.0 | 6.0 | 0.00 | 0.00 | 0.00 | 69 | 1014.4 |
| 20260903185158 | 87 | 196 | 5.0 | 8.0 | 0.00 | 0.00 | 0.00 | 71 | 1014.6 |
| 20260903184654 | 86 | 205 | 3.0 | 3.0 | 0.00 | 0.00 | 0.00 | 72 | 1014.8 |
| 20260903184150 | 85 | 133 | 6.0 | 8.0 | 0.00 | 0.00 | 0.00 | 73 | 1014.8 |
| 20260903183644 | 85 | 163 | 7.0 | 10.0 | 0.00 | 0.00 | 0.00 | 73 | 1014.8 |
| 20260903183139 | 86 | 232 | 1.0 | 2.0 | 0.00 | 0.00 | 0.00 | 74 | 1014.9 |
| 20260903182638 | 86 | 185 | 7.0 | 8.0 | 0.00 | 0.00 | 0.00 | 73 | 1014.9 |
| 20260903182134 | 85 | 197 | 5.0 | 7.0 | 0.00 | 0.00 | 0.00 | 75 | 1015.0 |
| 20260903181632 | 85 | 161 | 4.0 | 6.0 | 0.00 | 0.00 | 0.00 | 75 | 1015.1 |
| 20260903181126 | 85 | 134 | 5.0 | 6.0 | 0.00 | 0.00 | 0.00 | 75 | 1015.2 |
| 20260903180622 | 84 | 158 | 4.0 | 6.0 | 0.00 | 0.00 | 0.00 | 76 | 1015.2 |
| 20260903180116 | 84 | 164 | 2.0 | 3.0 | 0.00 | 0.00 | 0.00 | 76 | 1015.3 |
| 20260903175615 | 84 | 211 | 1.0 | 1.0 | 0.00 | 0.00 | 0.00 | 76 | 1015.2 |
| 20260903175114 | 84 | 204 | 4.0 | 6.0 | 0.00 | 0.00 | 0.00 | 77 | 1015.2 |
| 20260903174609 | 84 | 207 | 3.0 | 3.0 | 0.00 | 0.00 | 0.00 | 77 | 1015.3 |
| 20260903174104 | 83 | 164 | 1.0 | 2.0 | 0.00 | 0.00 | 0.00 | 78 | 1015.4 |
| 20260903173600 | 83 | 205 | 4.0 | 7.0 | 0.00 | 0.00 | 0.00 | 80 | 1015.5 |
| 20260903173056 | 83 | 205 | 4.0 | 10.0 | 0.00 | 0.00 | 0.00 | 80 | 1015.6 |
| 20260903172556 | 83 | 172 | 2.0 | 2.0 | 0.00 | 0.00 | 0.00 | 81 | 1015.7 |
| 20260903172052 | 83 | 181 | 3.0 | 7.0 | 0.00 | 0.00 | 0.00 | 80 | 1015.5 |
| 20260903171551 | 83 | 167 | 2.0 | 2.0 | 0.00 | 0.00 | 0.00 | 81 | 1015.5 |
| 20260903171047 | 82 | 156 | 3.0 | 5.0 | 0.00 | 0.00 | 0.00 | 82 | 1015.6 |
| 20260903170545 | 82 | 166 | 4.0 | 7.0 | 0.00 | 0.00 | 0.00 | 82 | 1015.5 |
| 20260903170042 | 82 | 152 | 2.0 | 2.0 | 0.00 | 0.00 | 0.00 | 82 | 1015.7 |
| 20260903165538 | 82 | 139 | 2.0 | 5.0 | 0.00 | 0.00 | 0.00 | 82 | 1015.6 |
| 20260903165034 | 82 | 122 | 2.0 | 3.0 | 0.00 | 0.00 | 0.00 | 83 | 1015.7 |
| 20260903164529 | 82 | 177 | 5.0 | 6.0 | 0.00 | 0.00 | 0.00 | 83 | 1015.5 |
| 20260903164024 | 82 | 111 | 6.0 | 10.0 | 0.00 | 0.00 | 0.00 | 82 | 1015.5 |
| 20260903163520 | 82 | 175 | 3.0 | 6.0 | 0.00 | 0.00 | 0.00 | 83 | 1015.5 |
| 20260903163015 | 82 | 180 | 6.0 | 9.0 | 0.00 | 0.00 | 0.00 | 83 | 1015.6 |
| 20260903162512 | 83 | 221 | 3.0 | 5.0 | 0.00 | 0.00 | 0.00 | 83 | 1015.3 |